Hourly Weather Russkaya Norka

Today, 19 April, Monday

Time Temperature Precipitation Wind Pressure Humidity
00:00 +8°C° 0 mm 3 mps 744 mmHg 74%
01:00 +8°C° 0 mm 3 mps 744 mmHg 74%
02:00 +6°C° 0 mm 4 mps 744 mmHg 74%
03:00 +7°C° 0 mm 3 mps 743 mmHg 73%
04:00 +6°C° 0 mm 4 mps 743 mmHg 74%
05:00 +6°C° 0 mm 4 mps 743 mmHg 76%
06:00 +5°C° 0 mm 4 mps 743 mmHg 77%
07:00 +6°C° 0 mm 5 mps 743 mmHg 73%
08:00 +7°C° 0 mm 6 mps 744 mmHg 68%
09:00 +8°C° 0 mm 7 mps 744 mmHg 65%
10:00 +8°C° 0 mm 7 mps 744 mmHg 62%
11:00 +9°C° 0 mm 8 mps 744 mmHg 58%
12:00 +10°C° 0 mm 8 mps 744 mmHg 54%
13:00 +10°C° 0 mm 7 mps 744 mmHg 54%
14:00 +10°C° 0 mm 7 mps 744 mmHg 53%
15:00 +10°C° 0 mm 7 mps 744 mmHg 52%
16:00 +10°C° 0 mm 6 mps 744 mmHg 56%
17:00 +9°C° 0 mm 6 mps 744 mmHg 60%
18:00 +8°C° 0 mm 5 mps 744 mmHg 63%
19:00 +8°C° 0.1 mm 6 mps 744 mmHg 68%
20:00 +6°C° 0.1 mm 7 mps 744 mmHg 73%
21:00 +5°C° 0.1 mm 8 mps 744 mmHg 78%
22:00 +4°C° 0.2 mm 7 mps 744 mmHg 81%
23:00 +3°C° 0.2 mm 7 mps 745 mmHg 84%

Tomorrow, 20 April, Tuesday

Time Temperature Precipitation Wind Pressure Humidity
00:00 +2°C° 0.2 mm 7 mps 745 mmHg 87%
01:00 +2°C° 0.2 mm 7 mps 745 mmHg 87%
02:00 +2°C° 0.2 mm 7 mps 745 mmHg 88%
03:00 0°C° 0.2 mm 7 mps 745 mmHg 88%
04:00 0°C° 0.2 mm 7 mps 745 mmHg 88%
05:00 0°C° 0.2 mm 8 mps 745 mmHg 88%
06:00 0°C° 0.2 mm 8 mps 745 mmHg 87%
07:00 0°C° 0.1 mm 8 mps 745 mmHg 87%
08:00 0°C° 0.1 mm 8 mps 745 mmHg 87%
09:00 -1°C° 0.1 mm 9 mps 746 mmHg 86%
10:00 0°C° 0 mm 9 mps 746 mmHg 83%
11:00 0°C° 0 mm 9 mps 746 mmHg 79%
12:00 0°C° 0 mm 9 mps 746 mmHg 75%
13:00 0°C° 0 mm 9 mps 745 mmHg 76%
14:00 0°C° 0 mm 9 mps 745 mmHg 76%
15:00 +1°C° 0 mm 9 mps 745 mmHg 76%
16:00 +1°C° 0.1 mm 9 mps 744 mmHg 76%
17:00 +2°C° 0.1 mm 9 mps 744 mmHg 76%
18:00 +2°C° 0.1 mm 10 mps 743 mmHg 76%
19:00 +2°C° 0.9 mm 10 mps 742 mmHg 77%
20:00 +2°C° 0.9 mm 11 mps 742 mmHg 79%
21:00 +2°C° 0.9 mm 12 mps 741 mmHg 80%
22:00 +2°C° 0.8 mm 12 mps 741 mmHg 81%
23:00 +1°C° 0.8 mm 13 mps 740 mmHg 81%

Day after tomorrow, 21 April, Wednesday

Time Temperature Precipitation Wind Pressure Humidity
00:00 +1°C° 0.8 mm 13 mps 739 mmHg 82%
01:00 +1°C° 0.1 mm 13 mps 739 mmHg 84%
02:00 +2°C° 0.1 mm 12 mps 739 mmHg 85%
03:00 +2°C° 0.1 mm 12 mps 739 mmHg 87%
04:00 +2°C° 0.2 mm 12 mps 739 mmHg 88%
05:00 +2°C° 0.2 mm 11 mps 739 mmHg 88%
06:00 +2°C° 0.2 mm 11 mps 739 mmHg 89%
07:00 +2°C° 0.3 mm 11 mps 739 mmHg 89%
08:00 +2°C° 0.3 mm 11 mps 739 mmHg 90%
09:00 +3°C° 0.3 mm 10 mps 740 mmHg 90%
10:00 +3°C° 0 mm 10 mps 740 mmHg 90%
11:00 +3°C° 0 mm 9 mps 740 mmHg 90%
12:00 +5°C° 0 mm 8 mps 741 mmHg 89%
13:00 +6°C° 0 mm 8 mps 741 mmHg 88%
14:00 +6°C° 0 mm 7 mps 741 mmHg 86%
15:00 +8°C° 0 mm 7 mps 742 mmHg 85%
16:00 +8°C° 0 mm 7 mps 742 mmHg 88%
17:00 +7°C° 0 mm 6 mps 742 mmHg 90%
18:00 +5°C° 0 mm 6 mps 742 mmHg 93%
19:00 +5°C° 0.1 mm 6 mps 743 mmHg 94%
20:00 +5°C° 0.1 mm 6 mps 743 mmHg 95%
21:00 +5°C° 0.1 mm 6 mps 743 mmHg 96%
22:00 +5°C° 0.1 mm 6 mps 743 mmHg 96%
23:00 +6°C° 0.1 mm 5 mps 743 mmHg 96%

22 April, Thursday

Time Temperature Precipitation Wind Pressure Humidity
00:00 +5°C° 0.1 mm 5 mps 744 mmHg 96%
01:00 +5°C° 0 mm 5 mps 744 mmHg 96%
02:00 +5°C° 0 mm 4 mps 744 mmHg 96%
03:00 +5°C° 0 mm 4 mps 744 mmHg 95%
04:00 +5°C° 0 mm 4 mps 744 mmHg 95%
05:00 +5°C° 0 mm 4 mps 745 mmHg 95%
06:00 +5°C° 0 mm 4 mps 745 mmHg 94%
07:00 +6°C° 0 mm 4 mps 745 mmHg 87%
08:00 +8°C° 0 mm 4 mps 746 mmHg 80%
09:00 +11°C° 0 mm 4 mps 746 mmHg 74%
10:00 +12°C° 0 mm 5 mps 746 mmHg 66%
11:00 +13°C° 0 mm 5 mps 746 mmHg 58%
12:00 +14°C° 0 mm 5 mps 746 mmHg 51%
13:00 +14°C° 0 mm 5 mps 746 mmHg 48%
14:00 +15°C° 0 mm 4 mps 746 mmHg 46%
15:00 +15°C° 0 mm 4 mps 746 mmHg 43%
16:00 +14°C° 0 mm 3 mps 746 mmHg 47%
17:00 +15°C° 0 mm 2 mps 746 mmHg 51%
18:00 +14°C° 0 mm 1 mps 747 mmHg 55%
19:00 +13°C° 0 mm 1 mps 747 mmHg 57%
20:00 +12°C° 0 mm 1 mps 747 mmHg 58%
21:00 +11°C° 0 mm 1 mps 747 mmHg 60%
22:00 +11°C° 0 mm 1 mps 747 mmHg 64%
23:00 +9°C° 0 mm 2 mps 747 mmHg 69%

23 April, Friday

Time Temperature Precipitation Wind Pressure Humidity
00:00 +9°C° 0 mm 2 mps 747 mmHg 74%
01:00 +9°C° 0 mm 2 mps 747 mmHg 79%
02:00 +8°C° 0 mm 3 mps 747 mmHg 84%
03:00 +8°C° 0 mm 3 mps 747 mmHg 89%
04:00 +8°C° 0 mm 3 mps 747 mmHg 89%
05:00 +7°C° 0 mm 3 mps 747 mmHg 90%
06:00 +7°C° 0 mm 2 mps 747 mmHg 90%
07:00 +8°C° 0 mm 3 mps 747 mmHg 85%
08:00 +9°C° 0 mm 3 mps 747 mmHg 80%
09:00 +11°C° 0 mm 3 mps 747 mmHg 75%
10:00 +11°C° 0.1 mm 3 mps 747 mmHg 71%
11:00 +12°C° 0.1 mm 3 mps 747 mmHg 67%
12:00 +13°C° 0.1 mm 3 mps 747 mmHg 63%
13:00 +13°C° 0.5 mm 3 mps 746 mmHg 64%
14:00 +13°C° 0.5 mm 3 mps 746 mmHg 65%
15:00 +13°C° 0.5 mm 3 mps 746 mmHg 65%
16:00 +12°C° 0.1 mm 3 mps 746 mmHg 69%
17:00 +13°C° 0.1 mm 2 mps 746 mmHg 72%
18:00 +12°C° 0.1 mm 2 mps 746 mmHg 76%
19:00 +10°C° 0 mm 2 mps 745 mmHg 78%
20:00 +10°C° 0 mm 1 mps 745 mmHg 81%
21:00 +9°C° 0 mm 1 mps 745 mmHg 84%
22:00 +9°C° 0 mm 1 mps 745 mmHg 85%
23:00 +9°C° 0 mm 1 mps 745 mmHg 87%

24 April, Saturday

Time Temperature Precipitation Wind Pressure Humidity
00:00 +8°C° 0 mm 1 mps 745 mmHg 88%
01:00 +8°C° 0 mm 1 mps 744 mmHg 89%
02:00 +8°C° 0 mm 1 mps 744 mmHg 89%
03:00 +7°C° 0 mm 1 mps 744 mmHg 89%
04:00 +7°C° 0 mm 1 mps 744 mmHg 89%
05:00 +7°C° 0 mm 1 mps 744 mmHg 89%
06:00 +7°C° 0 mm 2 mps 744 mmHg 89%
07:00 +8°C° 0 mm 2 mps 744 mmHg 82%
08:00 +10°C° 0 mm 2 mps 744 mmHg 75%
09:00 +12°C° 0 mm 2 mps 744 mmHg 68%
10:00 +12°C° 0 mm 3 mps 743 mmHg 63%
11:00 +13°C° 0 mm 3 mps 743 mmHg 59%
12:00 +16°C° 0 mm 3 mps 743 mmHg 54%
13:00 +16°C° 0.2 mm 3 mps 743 mmHg 55%
14:00 +16°C° 0.2 mm 3 mps 743 mmHg 55%
15:00 +16°C° 0.2 mm 3 mps 743 mmHg 56%
16:00 +16°C° 0.3 mm 3 mps 743 mmHg 59%
17:00 +14°C° 0.3 mm 3 mps 742 mmHg 61%
18:00 +15°C° 0.3 mm 2 mps 742 mmHg 64%
19:00 +13°C° 0.1 mm 3 mps 742 mmHg 68%
20:00 +12°C° 0.1 mm 3 mps 743 mmHg 72%
21:00 +11°C° 0.1 mm 3 mps 743 mmHg 75%
22:00 +10°C° 0 mm 2 mps 743 mmHg 77%
23:00 +10°C° 0 mm 2 mps 743 mmHg 78%
Show more